Temp
57 56 55 55 54 54 55 55 55 57 57 58 58 57 55 54 55 57 56 70 71 71 71 72 72 72 72 72 72 72 72 72 73 73 73 73 74 76 76 76 75 74 74
60 57 56 56 55 54 55 55 56 56 56 56 58 58 55 53 54 55 56 59 70 70 70 70 70 71 71 71 70 70 70 71 71 71 71 72 72 72 74 75 75 75 74
62 60 57 55 55 55 57 55 55 54 54 56 55 56 56 54 54 54 55 55 60 69 68 68 68 69 69 69 69 69 69 69 69 70 70 70 71 71 72 72 74 75 75
64 60 58 57 56 56 55 54 53 53 53 53 52 54 54 55 54 54 54 54 55 58 65 67 68 67 68 68 68 68 68 68 68 68 69 69 70 70 71 72 72 72 74
64 62 60 59 56 55 54 54 53 52 51 51 53 52 52 52 54 58 53 54 54 54 54 65 67 67 67 68 68 68 67 67 67 67 67 68 68 69 70 70 71 72 72
64 63 59 58 56 54 53 52 53 51 51 52 59 57 50 51 51 51 52 56 53 54 53 54 54 56 68 68 70 70 68 67 68 67 67 67 67 68 69 69 70 71 71
64 62 59 58 56 56 56 53 52 52 50 49 50 50 49 49 49 50 51 51 53 54 52 53 52 52 55 69 69 70 70 70 69 67 67 66 67 67 68 68 69 69 70
62 63 61 60 58 54 53 52 52 48 49 49 48 44 46 49 48 50 49 52 51 52 53 54 52 53 52 52 56 66 68 69 69 68 67 66 66 67 67 68 68 68 69
65 66 61 61 58 58 57 55 52 51 49 47 48 48 42 44 43 46 48 49 50 49 50 52 53 53 52 51 57 60 66 67 68 68 68 67 66 67 67 67 67 68 68
62 64 64 63 61 58 57 56 55 51 49 48 47 51 46 46 44 45 46 47 48 50 49 49 51 53 52 51 57 59 64 66 67 68 68 67 67 67 67 67 67 67 68
61 65 65 62 62 61 60 58 54 50 50 48 47 44 44 43 42 43 42 45 46 47 48 50 50 50 51 51 50 55 64 66 66 67 66 67 67 67 67 67 67 67 67
57 59 62 63 62 61 61 57 58 56 54 49 47 47 46 45 43 42 40 41 43 46 47 48 48 49 49 49 56 61 63 65 66 66 66 66 66 67 67 67 67 67 67
58 56 58 61 62 62 60 59 56 56 55 53 52 51 46 47 45 44 43 40 41 42 44 46 47 47 52 48 50 59 61 64 65 65 66 66 66 66 66 66 66 67 67
57 60 61 60 63 64 62 61 56 56 55 55 50 47 50 47 46 46 44 41 38 39 40 44 45 46 47 49 52 61 54 61 63 64 64 64 65 65 65 65 66 66 66
58 60 60 61 62 64 63 60 59 55 55 55 53 51 50 47 46 46 45 44 43 37 37 41 43 45 47 48 52 52 51 57 62 62 63 63 63 63 64 64 65 65 65
54 56 58 60 60 62 62 60 59 56 54 53 53 50 47 45 46 45 44 44 43 41 38 41 42 44 46 52 52 52 51 58 60 61 61 61 61 62 62 63 63 63 64
53 56 58 60 59 60 60 61 59 57 53 53 54 51 49 47 47 44 43 42 42 41 39 41 42 44 44 45 48 47 49 47 47 58 60 60 60 61 61 61 62 62 63
53 54 56 58 60 61 61 60 58 58 53 53 51 51 50 51 45 44 43 43 42 41 41 40 40 42 43 44 44 44 49 53 48 56 59 59 59 59 60 60 60 61 61
51 51 53 54 56 57 58 59 59 58 54 55 53 52 51 50 45 43 42 42 42 47 41 40 40 40 41 42 42 43 44 44 49 55 57 58 59 59 60 60 59 59 59
50 50 51 53 54 56 57 58 59 58 56 55 54 53 51 50 49 45 45 43 44 42 40 39 39 39 40 42 40 40 42 42 44 51 54 56 57 58 59 59 59 59 58
53 53 50 50 51 54 57 59 59 57 55 54 51 52 50 53 56 51 48 42 42 40 39 39 38 38 38 38 38 40 39 43 45 47 47 48 49 50 53 57 58 58 57
52 51 50 49 49 53 55 57 60 57 54 52 49 49 51 57 58 59 58 55 48 41 40 39 39 38 38 40 40 39 41 40 40 48 47 46 52 51 52 53 56 56 56
47 48 48 48 48 50 53 55 60 56 53 52 51 49 50 55 55 51 59 58 56 56 53 43 40 39 38 40 40 41 42 42 42 47 48 45 51 49 53 54 56 56 56
45 46 47 47 47 49 52 55 60 53 54 52 51 49 51 48 49 49 47 46 45 46 47 49 44 43 43 43 41 45 45 46 48 49 50 43 49 47 51 52 55 55 56
46 46 47 48 46 47 52 54 57 52 51 50 49 50 50 47 54 56 45 44 43 43 52 55 55 55 55 55 54 49 45 44 43 45 49 46 47 46 48 49 51 54 55
47 47 48 48 48 46 51 56 55 51 49 48 47 48 54 49 57 57 44 42 40 41 42 43 43 45 48 46 52 49 46 43 43 42 48 45 46 46 45 49 50 51 52
MSLP
1017.65 1017.89 1018.08 1018.12 1018.23 1018.19 1018.23 1018.20 1018.19 1018.10 1018.12 1018.13 1018.19 1018.44 1018.64 1018.77 1018.82 1018.86 1018.87 1018.62 1018.59 1018.69 1018.76 1018.73 1018.67 1018.63 1018.61 1018.60 1018.61 1018.55 1018.47 1018.33 1018.26 1018.18 1018.16 1018.07 1017.97 1018.00 1018.09 1018.18 1018.42 1018.64 1018.82
1016.80 1017.49 1017.86 1017.98 1018.15 1018.23 1018.16 1018.21 1018.23 1018.26 1018.34 1018.36 1018.40 1018.52 1018.71 1018.88 1018.95 1018.98 1019.00 1018.90 1018.85 1018.89 1018.99 1019.06 1018.95 1018.85 1018.81 1018.87 1018.91 1018.89 1018.80 1018.70 1018.59 1018.50 1018.47 1018.36 1018.24 1018.14 1018.05 1017.98 1018.09 1018.24 1018.47
1015.67 1016.39 1017.06 1017.52 1017.67 1017.90 1018.05 1018.23 1018.26 1018.31 1018.46 1018.38 1018.53 1018.59 1018.69 1018.82 1018.96 1019.08 1019.10 1019.17 1019.07 1019.05 1019.16 1019.25 1019.23 1019.11 1019.05 1019.06 1019.13 1019.12 1019.08 1019.00 1018.94 1018.86 1018.74 1018.62 1018.53 1018.39 1018.22 1018.02 1017.91 1017.91 1018.06
1014.73 1015.49 1016.24 1016.64 1016.93 1017.49 1017.86 1018.19 1018.43 1018.55 1018.56 1018.50 1018.55 1018.59 1018.72 1018.74 1018.85 1018.99 1019.11 1019.21 1019.27 1019.28 1019.21 1019.29 1019.34 1019.34 1019.21 1019.15 1019.20 1019.21 1019.19 1019.15 1019.10 1019.06 1018.97 1018.86 1018.73 1018.57 1018.39 1018.25 1018.10 1017.92 1017.83
1014.19 1014.67 1015.15 1015.57 1016.28 1017.02 1017.58 1018.04 1018.34 1018.47 1018.67 1018.70 1018.68 1018.64 1018.71 1018.81 1018.80 1018.77 1019.00 1019.16 1019.21 1019.21 1019.32 1019.14 1019.23 1019.26 1019.26 1019.12 1019.14 1019.10 1019.16 1019.13 1019.12 1019.10 1019.03 1018.95 1018.87 1018.76 1018.59 1018.45 1018.24 1018.05 1018.02
1013.64 1014.08 1014.52 1014.97 1015.74 1016.70 1017.30 1017.83 1018.13 1018.37 1018.45 1018.55 1018.58 1018.67 1018.72 1018.66 1018.74 1018.86 1018.84 1018.83 1019.09 1019.10 1019.13 1019.23 1019.23 1019.23 1018.99 1019.03 1018.82 1018.84 1018.99 1019.04 1018.88 1019.02 1019.02 1018.96 1018.85 1018.76 1018.62 1018.49 1018.40 1018.25 1018.08
1013.11 1013.74 1014.25 1014.71 1015.18 1015.74 1016.29 1017.07 1017.77 1018.25 1018.54 1018.57 1019.00 1019.02 1018.75 1018.52 1018.56 1018.61 1018.66 1018.75 1018.84 1018.85 1019.00 1019.00 1019.18 1019.20 1019.09 1018.70 1018.67 1018.62 1018.60 1018.63 1018.72 1018.95 1018.92 1018.90 1018.85 1018.72 1018.57 1018.46 1018.36 1018.24 1018.08
1013.43 1013.64 1013.48 1014.05 1014.67 1015.27 1015.71 1016.28 1017.00 1017.94 1018.29 1018.41 1018.96 1019.60 1019.39 1018.84 1018.50 1018.29 1018.51 1018.60 1018.56 1018.55 1018.76 1018.64 1018.88 1019.03 1018.96 1018.91 1018.76 1018.58 1018.53 1018.55 1018.62 1018.71 1018.69 1018.78 1018.73 1018.63 1018.53 1018.42 1018.29 1018.15 1017.99
1013.65 1013.00 1013.27 1013.58 1013.85 1014.57 1015.13 1015.55 1016.04 1016.88 1017.85 1018.30 1018.28 1018.58 1019.45 1019.24 1018.89 1018.43 1018.39 1018.39 1018.41 1018.51 1018.42 1018.48 1018.49 1018.64 1018.75 1018.77 1018.67 1018.54 1018.40 1018.41 1018.45 1018.45 1018.47 1018.56 1018.57 1018.47 1018.40 1018.29 1018.17 1018.02 1017.84
1013.34 1013.28 1012.98 1012.74 1013.17 1013.69 1014.38 1014.62 1015.14 1015.73 1016.71 1017.84 1018.35 1018.03 1018.14 1018.21 1018.79 1018.98 1018.51 1018.33 1018.23 1018.28 1018.33 1018.40 1018.31 1018.34 1018.43 1018.55 1018.44 1018.42 1018.29 1018.21 1018.24 1018.23 1018.22 1018.28 1018.24 1018.27 1018.19 1018.09 1017.95 1017.82 1017.65
1013.30 1012.99 1012.60 1012.56 1012.48 1012.80 1013.09 1013.78 1014.49 1015.07 1015.50 1016.35 1016.96 1017.67 1018.11 1018.18 1018.30 1018.76 1018.89 1018.60 1018.44 1018.14 1018.14 1018.15 1017.98 1018.18 1018.10 1018.17 1018.29 1018.26 1018.03 1017.90 1017.91 1017.97 1018.05 1018.01 1017.99 1017.95 1017.91 1017.79 1017.65 1017.51 1017.35
1013.03 1012.86 1012.54 1012.13 1011.95 1011.85 1012.29 1012.61 1013.11 1013.87 1014.52 1015.11 1015.68 1016.32 1016.82 1017.55 1017.99 1018.24 1018.75 1018.62 1018.42 1018.27 1017.96 1017.90 1018.02 1017.86 1017.79 1017.92 1017.90 1017.85 1017.82 1017.68 1017.54 1017.55 1017.58 1017.62 1017.62 1017.52 1017.40 1017.37 1017.25 1017.11 1017.00
1012.77 1012.39 1011.98 1011.82 1011.49 1011.19 1011.13 1011.62 1012.25 1012.75 1013.37 1014.11 1014.60 1015.04 1015.63 1016.12 1016.51 1017.06 1017.66 1018.19 1018.32 1018.30 1018.03 1017.62 1017.54 1017.55 1017.45 1017.59 1017.62 1017.53 1017.49 1017.33 1017.19 1017.11 1017.10 1017.12 1017.11 1017.04 1016.95 1016.87 1016.86 1016.81 1016.68
1012.55 1012.15 1011.54 1011.03 1010.68 1010.60 1010.48 1010.60 1011.14 1011.63 1012.30 1012.87 1013.62 1014.19 1014.65 1015.20 1015.74 1016.13 1016.68 1017.48 1018.51 1018.54 1018.35 1017.62 1017.20 1017.28 1017.32 1017.24 1017.23 1017.10 1017.28 1017.15 1017.00 1016.87 1016.79 1016.73 1016.65 1016.58 1016.52 1016.39 1016.30 1016.25 1016.23
1012.12 1011.63 1011.15 1010.40 1009.93 1009.70 1009.72 1009.83 1009.97 1010.63 1011.20 1011.79 1012.47 1013.18 1013.75 1014.36 1014.92 1015.35 1015.71 1016.16 1017.01 1018.26 1018.28 1017.44 1017.35 1016.98 1017.05 1017.01 1016.90 1016.82 1016.87 1016.78 1016.57 1016.44 1016.30 1016.27 1016.23 1016.11 1015.94 1015.84 1015.75 1015.68 1015.65
1011.44 1011.14 1010.62 1009.74 1009.07 1008.81 1008.90 1008.96 1009.11 1009.55 1010.34 1010.92 1011.50 1012.34 1013.14 1013.59 1014.24 1014.83 1015.32 1015.69 1016.12 1016.85 1017.66 1017.06 1017.07 1016.83 1016.72 1016.59 1016.52 1016.40 1016.37 1016.25 1016.10 1015.93 1015.86 1015.72 1015.55 1015.37 1015.29 1015.19 1015.12 1015.01 1014.96
1010.82 1010.71 1010.04 1009.28 1008.32 1007.94 1008.08 1008.26 1008.20 1008.58 1009.30 1009.90 1010.56 1011.30 1012.16 1012.77 1013.68 1014.36 1014.89 1015.38 1015.80 1016.17 1016.81 1016.84 1016.76 1016.54 1016.57 1016.35 1016.20 1016.14 1015.97 1015.87 1015.73 1015.39 1015.08 1014.88 1014.70 1014.59 1014.50 1014.45 1014.38 1014.25 1014.30
1010.31 1010.04 1009.57 1008.98 1007.87 1007.34 1007.34 1007.54 1007.64 1007.63 1008.31 1009.06 1009.73 1010.48 1011.31 1012.17 1012.96 1013.61 1014.40 1015.03 1015.31 1015.62 1016.13 1016.50 1016.43 1016.39 1016.20 1015.93 1015.94 1015.85 1015.49 1015.07 1014.97 1014.60 1014.30 1014.08 1013.84 1013.66 1013.58 1013.54 1013.45 1013.46 1013.58
1009.49 1009.25 1009.13 1008.69 1008.07 1007.41 1007.21 1007.16 1007.03 1007.13 1007.48 1007.82 1008.36 1009.38 1010.25 1011.32 1012.24 1013.03 1013.81 1014.45 1014.87 1014.99 1015.51 1016.04 1016.11 1015.91 1015.73 1015.62 1015.57 1015.25 1014.93 1014.58 1014.25 1013.86 1013.40 1013.02 1012.77 1012.63 1012.51 1012.45 1012.44 1012.54 1012.68
1008.64 1008.34 1008.13 1007.93 1007.59 1007.09 1006.78 1006.60 1006.21 1006.17 1006.44 1006.78 1007.40 1008.23 1009.16 1010.14 1011.10 1011.97 1012.93 1013.60 1014.21 1014.72 1015.13 1015.57 1015.74 1015.64 1015.42 1015.07 1015.05 1014.94 1014.41 1013.83 1013.49 1012.87 1012.37 1012.13 1011.96 1011.72 1011.42 1011.24 1011.26 1011.41 1011.67
1007.94 1007.60 1007.36 1007.05 1006.92 1006.73 1005.84 1005.15 1004.92 1005.27 1005.76 1006.03 1006.79 1007.50 1008.31 1009.07 1009.93 1010.78 1011.86 1012.85 1013.60 1014.10 1014.65 1015.12 1015.31 1015.20 1014.96 1014.89 1014.78 1014.14 1013.77 1013.08 1012.37 1012.08 1011.47 1011.24 1011.16 1010.86 1010.60 1010.38 1010.30 1010.34 1010.48
1007.19 1007.09 1006.74 1006.30 1005.77 1005.42 1004.37 1004.14 1003.45 1004.19 1004.72 1005.16 1006.00 1006.98 1007.62 1008.36 1009.15 1010.04 1010.88 1011.63 1012.29 1013.13 1013.87 1014.27 1014.36 1014.37 1014.27 1013.99 1013.77 1013.50 1012.88 1012.43 1011.64 1010.88 1010.40 1009.95 1009.82 1009.43 1009.31 1009.28 1009.29 1009.39 1009.54
1006.77 1006.42 1005.94 1005.63 1005.02 1004.32 1003.65 1003.00 1002.56 1003.12 1003.97 1004.44 1005.16 1006.27 1007.06 1007.77 1008.59 1009.45 1010.23 1011.02 1011.65 1012.10 1012.33 1012.73 1013.34 1013.43 1013.35 1013.00 1012.74 1012.33 1011.76 1011.42 1010.46 1009.86 1009.72 1008.60 1008.59 1008.00 1007.86 1007.80 1008.03 1008.28 1008.45
1005.96 1005.46 1004.99 1004.51 1003.97 1003.27 1002.61 1002.05 1001.18 1002.32 1003.33 1003.96 1004.45 1005.43 1006.26 1007.26 1008.04 1009.05 1010.02 1010.75 1011.25 1011.55 1011.67 1011.91 1012.11 1012.01 1011.99 1011.59 1011.47 1010.99 1010.44 1009.59 1008.66 1007.99 1008.03 1006.85 1006.80 1006.49 1006.60 1006.65 1006.71 1007.12 1007.49
1004.92 1004.53 1004.04 1003.16 1003.03 1002.11 1001.63 1000.67 1000.55 1001.95 1003.34 1003.69 1004.14 1004.95 1005.73 1006.79 1007.60 1008.61 1009.76 1010.60 1011.21 1011.38 1011.28 1011.24 1011.17 1011.01 1010.84 1010.44 1010.08 1009.84 1008.97 1008.57 1006.90 1006.18 1005.93 1005.53 1005.10 1005.06 1005.36 1005.62 1005.78 1006.20 1006.74
1003.82 1003.53 1002.94 1002.17 1001.75 1001.43 1000.66 999.76 1000.36 1001.77 1003.09 1003.55 1004.00 1004.71 1005.24 1006.30 1007.22 1008.20 1009.39 1010.32 1011.09 1011.18 1011.33 1011.20 1011.04 1010.74 1010.51 1009.86 1009.13 1008.74 1008.01 1007.02 1005.97 1004.82 1003.66 1004.32 1004.05 1004.51 1004.35 1004.49 1005.10 1005.71 1006.32
Wind_Speed
5 4 4 3 3 2 3 3 3 2 2 3 3 5 5 5 5 2 0 6 6 5 3 3 3 4 4 5 6 7 7 7 8 9 10 9 3 8 9 11 10 9 9
7 5 5 4 4 4 3 4 4 3 3 2 3 4 5 5 5 5 2 2 7 5 3 2 2 3 4 5 5 6 6 6 6 7 7 7 7 8 5 11 12 12 11
11 10 6 5 5 4 5 3 2 1 2 1 3 2 4 5 5 5 4 2 3 6 5 3 2 2 3 3 3 4 5 6 6 7 7 8 7 7 6 8 4 13 13
12 9 7 6 6 5 4 3 3 2 3 3 2 3 3 3 5 6 4 4 3 3 5 5 3 3 2 1 1 2 3 4 5 6 7 8 8 8 8 8 7 11 10
12 10 8 8 7 5 4 4 3 3 3 3 4 3 3 4 5 4 6 6 6 5 4 7 7 6 5 2 2 1 1 1 4 5 6 6 7 8 8 8 9 9 7
12 10 7 7 7 5 4 3 3 3 3 4 2 2 3 4 3 4 6 4 5 6 5 5 3 3 7 7 5 3 2 3 2 3 5 7 7 7 7 7 8 8 8
10 9 6 7 7 9 9 7 4 5 3 2 2 3 3 4 5 5 4 5 6 6 6 5 4 3 3 9 7 6 6 5 4 2 4 5 7 7 7 7 8 9 11
7 8 10 10 9 6 7 8 6 3 3 5 4 2 3 4 2 5 3 5 7 4 5 6 5 5 5 4 6 8 6 7 6 6 7 6 7 8 8 9 9 10 10
9 10 10 8 10 8 9 9 8 9 5 4 5 5 1 5 1 1 4 4 5 4 5 5 6 6 6 5 7 7 8 9 8 9 7 8 8 9 9 10 10 11 11
7 9 9 11 11 9 9 11 9 7 6 6 1 4 1 4 4 2 2 3 4 4 5 4 5 5 5 4 7 9 11 10 11 10 10 10 11 10 10 11 12 12 13
7 11 12 12 12 10 12 11 8 8 6 5 5 3 1 0 2 3 3 3 2 3 4 4 3 4 4 4 4 7 12 13 13 11 10 11 10 11 12 13 14 14 14
4 8 11 12 13 12 12 12 13 12 12 6 5 5 5 5 5 4 2 3 3 3 3 3 4 4 3 3 5 9 11 12 14 14 13 13 13 14 14 15 14 14 15
7 7 10 12 12 13 14 12 12 13 12 12 11 8 5 5 4 4 4 2 3 3 2 3 4 4 3 3 3 5 6 6 7 9 12 14 16 16 16 16 17 17 17
7 10 10 13 16 16 15 14 11 11 11 11 11 8 7 6 5 4 5 6 1 2 2 5 2 3 3 2 4 8 4 9 10 12 15 16 18 19 19 20 19 19 18
7 11 12 13 16 16 16 15 12 12 12 13 12 11 7 6 5 4 4 4 6 5 5 4 3 3 3 3 6 5 5 9 13 15 15 16 19 21 21 21 22 21 20
6 10 12 13 13 16 16 16 13 11 12 10 9 11 8 5 6 5 4 4 4 5 4 5 5 4 4 3 6 6 6 12 13 14 18 17 21 22 22 22 22 20 21
7 9 13 14 12 14 15 16 16 13 15 13 11 12 12 8 7 5 4 3 4 4 5 3 4 3 3 5 5 4 5 5 5 17 20 20 19 20 21 20 21 21 19
7 6 10 15 11 11 14 16 16 14 16 15 14 13 12 8 8 7 5 7 5 5 5 6 4 4 6 4 5 5 6 6 5 13 20 21 22 21 20 21 18 18 19
7 6 7 8 10 8 11 15 15 15 15 16 16 15 14 13 10 6 5 6 5 4 4 3 4 3 3 3 5 5 6 6 5 16 20 22 22 22 22 21 20 21 22
7 7 6 8 10 12 11 18 18 18 15 15 14 15 14 15 13 10 8 8 6 5 4 3 3 4 4 5 3 4 6 4 7 8 16 19 21 22 23 21 20 19 18
10 10 8 8 10 12 12 16 18 18 16 14 12 13 12 15 20 16 8 7 7 5 3 4 3 3 3 3 4 4 4 7 9 7 10 9 9 9 11 20 20 22 21
10 11 12 11 11 10 22 29 21 16 16 15 14 12 11 20 20 22 20 18 14 8 6 4 4 4 5 5 4 5 8 7 10 6 10 10 10 10 10 10 21 22 19
8 12 14 11 11 13 24 29 30 14 14 14 14 12 11 10 14 8 17 18 17 17 11 6 6 6 5 5 4 8 10 11 13 11 11 13 10 11 10 11 22 24 23
10 12 13 13 11 11 26 30 24 14 13 14 14 14 14 10 10 10 7 6 5 3 3 3 5 6 7 7 8 9 13 15 15 14 13 15 11 12 10 9 22 23 22
13 11 12 15 10 14 25 29 20 14 13 13 12 13 13 11 17 18 8 7 5 3 5 9 12 13 17 21 19 11 12 12 14 13 11 11 10 9 7 9 9 21 20
14 10 14 13 11 16 20 21 21 10 11 9 9 11 21 14 20 19 8 7 6 5 3 5 5 7 12 13 24 14 12 13 13 11 8 7 9 5 5 4 7 7 8
Wind_Direction
189 185 213 206 223 237 225 219 222 182 131 107 99 125 135 142 142 134 87 136 136 137 130 114 108 99 89 84 71 58 51 53 47 40 46 40 22 221 229 212 210 209 212
182 187 197 209 228 221 223 210 200 187 188 155 139 134 144 156 159 155 163 149 144 141 124 104 99 99 91 78 63 51 43 41 45 43 30 33 28 21 8 238 224 217 219
185 183 187 194 211 214 220 215 230 153 170 199 177 177 157 167 171 173 167 172 149 144 139 129 123 111 103 81 58 48 40 35 28 19 12 15 6 360 359 11 283 234 223
185 177 181 191 193 193 192 193 190 203 205 191 199 226 207 187 177 182 176 175 170 174 172 172 178 181 160 123 80 52 42 35 19 9 4 2 359 355 354 349 349 7 246
189 180 183 191 178 180 186 184 201 172 193 214 218 222 232 218 203 176 186 192 191 187 192 211 203 205 215 205 190 140 72 7 20 3 1 354 348 348 346 338 338 332 319
189 184 183 179 166 165 189 176 184 204 193 194 230 212 243 244 220 207 197 191 201 197 198 214 245 247 232 216 218 257 211 242 352 346 348 344 342 338 331 332 331 318 314
187 182 187 178 175 183 188 180 160 190 234 166 85 322 292 241 237 218 211 205 202 208 206 208 217 225 252 238 244 261 258 258 300 299 313 328 327 327 325 317 323 318 315
211 203 187 192 188 177 175 175 164 163 207 189 152 95 300 317 285 223 206 213 217 202 213 219 213 230 231 242 251 253 254 257 264 258 278 300 303 312 312 313 310 308 309
252 213 201 196 187 186 197 190 175 169 184 222 225 150 121 232 340 347 229 217 204 209 210 218 218 228 223 225 243 247 230 237 246 262 278 278 286 297 298 300 301 301 298
249 243 230 200 195 192 193 199 188 175 142 188 246 229 228 149 175 298 314 264 213 210 206 220 207 224 218 219 230 231 229 218 239 271 262 268 279 289 288 289 294 294 292
280 258 231 220 206 197 203 196 182 188 179 157 171 146 150 79 106 130 226 268 308 233 221 215 200 222 232 230 233 239 236 240 244 252 254 267 276 281 281 283 287 285 287
284 262 253 234 221 207 200 197 197 194 195 182 169 172 169 168 193 158 168 228 195 248 234 225 220 224 212 227 251 258 266 267 261 258 257 262 269 273 279 280 283 284 281
311 285 253 246 232 215 206 199 195 196 195 196 194 199 177 189 158 153 140 187 187 249 275 237 223 215 221 209 235 260 274 284 285 276 271 269 272 274 274 272 278 279 279
296 298 289 256 241 229 216 202 198 201 197 201 194 187 194 187 173 169 166 144 110 280 308 243 267 219 219 212 240 272 281 279 281 282 278 276 277 276 274 273 271 270 272
286 302 301 283 251 234 221 208 204 201 194 198 201 195 193 189 182 185 167 156 150 189 238 251 217 221 207 258 259 260 255 265 278 279 276 285 282 275 271 270 271 271 272
274 297 297 300 260 241 225 211 210 202 195 196 194 187 192 168 181 180 178 168 164 156 204 201 228 221 249 264 260 259 253 271 273 274 280 283 275 267 269 269 270 267 266
279 292 302 302 283 242 226 222 213 199 199 193 192 190 194 163 184 177 173 164 175 155 187 269 222 243 242 244 272 278 261 259 260 275 279 278 271 270 267 266 264 261 259
265 289 307 302 314 269 238 229 219 199 199 196 190 186 190 177 178 172 174 191 189 185 161 219 218 234 222 232 235 253 261 258 246 267 281 279 276 272 266 263 261 249 251
258 276 282 297 302 307 268 239 227 216 205 200 189 187 185 177 182 166 176 189 188 188 185 184 241 233 244 226 249 254 250 255 250 264 273 275 274 270 261 258 255 252 247
257 259 254 278 277 276 276 249 232 222 205 199 189 189 178 183 186 179 182 190 189 190 171 184 219 246 233 245 232 259 278 232 256 257 260 260 261 263 258 254 255 250 243
268 274 262 264 269 271 262 258 227 225 206 191 184 180 178 183 187 184 176 186 176 181 170 190 229 230 245 259 233 248 242 265 270 258 264 257 249 250 252 261 260 253 245
274 269 265 264 270 277 273 274 227 210 200 184 178 180 177 188 196 195 198 194 183 171 189 186 221 230 244 247 233 236 259 275 284 232 250 257 241 242 238 232 240 240 239
271 277 272 252 267 279 274 276 232 198 197 189 180 171 173 183 180 180 203 199 203 207 204 190 215 215 234 225 231 260 269 261 262 261 262 262 246 246 236 235 233 234 233
271 282 278 254 272 283 274 278 212 196 201 190 174 171 175 164 168 165 169 159 162 156 220 229 212 243 238 249 228 257 264 268 270 265 250 259 240 242 239 232 230 229 229
281 277 277 268 270 285 274 276 202 188 197 183 167 166 162 160 176 174 154 171 174 229 250 262 272 282 293 293 287 286 275 273 268 265 250 244 235 230 227 223 213 217 222
282 281 285 259 270 278 266 256 195 176 186 174 160 162 161 156 172 169 152 155 182 229 235 278 293 294 290 280 286 275 269 266 270 280 250 226 235 202 209 171 183 189 196